Year,Month,Day,Hour,Minute,Value (Times are PST for temperature in C)
2016,06,27,00,00,17.30
2016,06,27,00,01,17.30
2016,06,27,00,02,17.30
2016,06,27,00,03,17.20
2016,06,27,00,04,17.20
2016,06,27,00,05,17.20
2016,06,27,00,06,17.20
2016,06,27,00,07,17.20
2016,06,27,00,08,17.20
2016,06,27,00,09,17.20
2016,06,27,00,10,17.20
2016,06,27,00,11,17.20
2016,06,27,00,12,17.10
2016,06,27,00,13,17.10
2016,06,27,00,14,17.10
2016,06,27,00,15,17.10
2016,06,27,00,16,17.10
2016,06,27,00,17,17.10
2016,06,27,00,18,17.10
2016,06,27,00,19,17.10
2016,06,27,00,20,17.10
2016,06,27,00,21,17.10
2016,06,27,00,22,17.10
2016,06,27,00,23,17.00
2016,06,27,00,24,17.00
2016,06,27,00,25,17.00
2016,06,27,00,26,16.90
2016,06,27,00,27,16.90
2016,06,27,00,28,16.90
2016,06,27,00,29,16.80
2016,06,27,00,30,16.80
2016,06,27,00,31,16.80
2016,06,27,00,32,16.80
2016,06,27,00,33,16.70
2016,06,27,00,34,16.70
2016,06,27,00,35,16.70
2016,06,27,00,36,16.60
2016,06,27,00,37,16.60
2016,06,27,00,38,16.60
2016,06,27,00,39,16.60
2016,06,27,00,40,16.50
2016,06,27,00,41,16.50
2016,06,27,00,42,16.40
2016,06,27,00,43,16.40
2016,06,27,00,44,16.40
2016,06,27,00,45,16.40
2016,06,27,00,46,16.30
2016,06,27,00,47,16.30
2016,06,27,00,48,16.30
2016,06,27,00,49,16.30
2016,06,27,00,50,16.30
2016,06,27,00,51,16.30
2016,06,27,00,52,16.20
2016,06,27,00,53,16.20
2016,06,27,00,54,16.20
2016,06,27,00,55,16.30
2016,06,27,00,56,16.30
2016,06,27,00,57,16.40
2016,06,27,00,58,16.50
2016,06,27,00,59,16.50
2016,06,27,01,00,16.60
2016,06,27,01,01,16.60
2016,06,27,01,02,16.70
2016,06,27,01,03,16.70
2016,06,27,01,04,16.70
2016,06,27,01,05,16.70
2016,06,27,01,06,16.70
2016,06,27,01,07,16.80
2016,06,27,01,08,16.80
2016,06,27,01,09,16.80
2016,06,27,01,10,16.80
2016,06,27,01,11,16.80
2016,06,27,01,12,16.80
2016,06,27,01,13,16.80
2016,06,27,01,14,16.80
2016,06,27,01,15,16.80
2016,06,27,01,16,16.80
2016,06,27,01,17,16.70
2016,06,27,01,18,16.70
2016,06,27,01,19,16.70
2016,06,27,01,20,16.70
2016,06,27,01,21,16.70
2016,06,27,01,22,16.70
2016,06,27,01,23,16.70
2016,06,27,01,24,16.70
2016,06,27,01,25,16.70
2016,06,27,01,26,16.70
2016,06,27,01,27,16.70
2016,06,27,01,28,16.70
2016,06,27,01,29,16.70
2016,06,27,01,30,16.60
2016,06,27,01,31,16.60
2016,06,27,01,32,16.60
2016,06,27,01,33,16.60
2016,06,27,01,34,16.60
2016,06,27,01,35,16.60
2016,06,27,01,36,16.60
2016,06,27,01,37,16.60
2016,06,27,01,38,16.60
2016,06,27,01,39,16.60
2016,06,27,01,40,16.60
2016,06,27,01,41,16.60
2016,06,27,01,42,16.60
2016,06,27,01,43,16.70
2016,06,27,01,44,16.70
2016,06,27,01,45,16.70
2016,06,27,01,46,16.70
2016,06,27,01,47,16.70
2016,06,27,01,48,16.70
2016,06,27,01,49,16.70
2016,06,27,01,50,16.80
2016,06,27,01,51,16.80
2016,06,27,01,52,16.80
2016,06,27,01,53,16.80
2016,06,27,01,54,16.80
2016,06,27,01,55,16.80
2016,06,27,01,56,16.80
2016,06,27,01,57,16.80
2016,06,27,01,58,16.80
2016,06,27,01,59,16.80
2016,06,27,02,00,16.80
2016,06,27,02,01,16.80
2016,06,27,02,02,16.80
2016,06,27,02,03,16.80
2016,06,27,02,04,16.80
2016,06,27,02,05,16.80
2016,06,27,02,06,16.80
2016,06,27,02,07,16.80
2016,06,27,02,08,16.80
2016,06,27,02,09,16.80
2016,06,27,02,10,16.80
2016,06,27,02,11,16.80
2016,06,27,02,12,16.80
2016,06,27,02,13,16.70
2016,06,27,02,14,16.70
2016,06,27,02,15,16.70
2016,06,27,02,16,16.70
2016,06,27,02,17,16.70
2016,06,27,02,18,16.60
2016,06,27,02,19,16.60
2016,06,27,02,20,16.60
2016,06,27,02,21,16.60
2016,06,27,02,22,16.60
2016,06,27,02,23,16.50
2016,06,27,02,24,16.50
2016,06,27,02,25,16.50
2016,06,27,02,26,16.40
2016,06,27,02,27,16.40
2016,06,27,02,28,16.40
2016,06,27,02,29,16.40
2016,06,27,02,30,16.40
2016,06,27,02,31,16.30
2016,06,27,02,32,16.30
2016,06,27,02,33,16.30
2016,06,27,02,34,16.30
2016,06,27,02,35,16.30
2016,06,27,02,36,16.30
2016,06,27,02,37,16.20
2016,06,27,02,38,16.20
2016,06,27,02,39,16.20
2016,06,27,02,40,16.20
2016,06,27,02,41,16.20
2016,06,27,02,42,16.20
2016,06,27,02,43,16.20
2016,06,27,02,44,16.20
2016,06,27,02,45,16.20
2016,06,27,02,46,16.20
2016,06,27,02,47,16.10
2016,06,27,02,48,16.10
2016,06,27,02,49,16.10
2016,06,27,02,50,16.10
2016,06,27,02,51,16.10
2016,06,27,02,52,16.10
2016,06,27,02,53,16.10
2016,06,27,02,54,16.10
2016,06,27,02,55,16.10
2016,06,27,02,56,16.10
2016,06,27,02,57,16.00
2016,06,27,02,58,16.00
2016,06,27,02,59,16.00
2016,06,27,03,00,16.00
2016,06,27,03,01,15.90
2016,06,27,03,02,15.90
2016,06,27,03,03,15.90
2016,06,27,03,04,15.90
2016,06,27,03,05,15.90
2016,06,27,03,06,15.80
2016,06,27,03,07,15.80
2016,06,27,03,08,15.80
2016,06,27,03,09,15.80
2016,06,27,03,10,15.80
2016,06,27,03,11,15.80
2016,06,27,03,12,15.70
2016,06,27,03,13,15.70
2016,06,27,03,14,15.70
2016,06,27,03,15,15.70
2016,06,27,03,16,15.70
2016,06,27,03,17,15.60
2016,06,27,03,18,15.60
2016,06,27,03,19,15.60
2016,06,27,03,20,15.60
2016,06,27,03,21,15.60
2016,06,27,03,22,15.50
2016,06,27,03,23,15.50
2016,06,27,03,24,15.50
2016,06,27,03,25,15.50
2016,06,27,03,26,15.50
2016,06,27,03,27,15.40
2016,06,27,03,28,15.40
2016,06,27,03,29,15.40
2016,06,27,03,30,15.40
2016,06,27,03,31,15.40
2016,06,27,03,32,15.30
2016,06,27,03,33,15.30
2016,06,27,03,34,15.30
2016,06,27,03,35,15.30
2016,06,27,03,36,15.30
2016,06,27,03,37,15.30
2016,06,27,03,38,15.30
2016,06,27,03,39,15.30
2016,06,27,03,40,15.30
2016,06,27,03,41,15.30
2016,06,27,03,42,15.20
2016,06,27,03,43,15.20
2016,06,27,03,44,15.20
2016,06,27,03,45,15.20
2016,06,27,03,46,15.20
2016,06,27,03,47,15.20
2016,06,27,03,48,15.20
2016,06,27,03,49,15.20
2016,06,27,03,50,15.20
2016,06,27,03,51,15.20
2016,06,27,03,52,15.20
2016,06,27,03,53,15.10
2016,06,27,03,54,15.10
2016,06,27,03,55,15.10
2016,06,27,03,56,15.10
2016,06,27,03,57,15.10
2016,06,27,03,58,15.10
2016,06,27,03,59,15.10
2016,06,27,04,00,15.10
2016,06,27,04,01,15.10
2016,06,27,04,02,15.10
2016,06,27,04,03,15.10
2016,06,27,04,04,15.10
2016,06,27,04,05,15.10
2016,06,27,04,06,15.10
2016,06,27,04,07,15.10
2016,06,27,04,08,15.10
2016,06,27,04,09,15.00
2016,06,27,04,10,15.00
2016,06,27,04,11,15.00
2016,06,27,04,12,15.00
2016,06,27,04,13,15.00
2016,06,27,04,14,15.00
2016,06,27,04,15,15.00
2016,06,27,04,16,15.00
2016,06,27,04,17,14.90
2016,06,27,04,18,14.90
2016,06,27,04,19,14.90
2016,06,27,04,20,14.90
2016,06,27,04,21,14.90
2016,06,27,04,22,14.90
2016,06,27,04,23,14.90
2016,06,27,04,24,14.90
2016,06,27,04,25,14.90
2016,06,27,04,26,14.80
2016,06,27,04,27,14.80
2016,06,27,04,28,14.80
2016,06,27,04,29,14.80
2016,06,27,04,30,14.80
2016,06,27,04,31,14.80
2016,06,27,04,32,14.70
2016,06,27,04,33,14.70
2016,06,27,04,34,14.70
2016,06,27,04,35,14.70
2016,06,27,04,36,14.60
2016,06,27,04,37,14.60
2016,06,27,04,38,14.60
2016,06,27,04,39,14.60
2016,06,27,04,40,14.60
2016,06,27,04,41,14.60
2016,06,27,04,42,14.50
2016,06,27,04,43,14.50
2016,06,27,04,44,14.50
2016,06,27,04,45,14.50
2016,06,27,04,46,14.40
2016,06,27,04,47,14.40
2016,06,27,04,48,14.40
2016,06,27,04,49,14.40
2016,06,27,04,50,14.40
2016,06,27,04,51,14.40
2016,06,27,04,52,14.40
2016,06,27,04,53,14.40
2016,06,27,04,54,14.40
2016,06,27,04,55,14.40
2016,06,27,04,56,14.40
2016,06,27,04,57,14.40
2016,06,27,04,58,14.40
2016,06,27,04,59,14.40
2016,06,27,05,00,14.40
2016,06,27,05,01,14.40
2016,06,27,05,02,14.40
2016,06,27,05,03,14.40
2016,06,27,05,04,14.40
2016,06,27,05,05,14.40
2016,06,27,05,06,14.40
2016,06,27,05,07,14.40
2016,06,27,05,08,14.40
2016,06,27,05,09,14.30
2016,06,27,05,10,14.30
2016,06,27,05,11,14.30
2016,06,27,05,12,14.30
2016,06,27,05,13,14.30
2016,06,27,05,14,14.30
2016,06,27,05,15,14.30
2016,06,27,05,16,14.30
2016,06,27,05,17,14.30
2016,06,27,05,18,14.30
2016,06,27,05,19,14.40
2016,06,27,05,20,14.40
2016,06,27,05,21,14.40
2016,06,27,05,22,14.40
2016,06,27,05,23,14.40
2016,06,27,05,24,14.40
2016,06,27,05,25,14.40
2016,06,27,05,26,14.40
2016,06,27,05,27,14.40
2016,06,27,05,28,14.40
2016,06,27,05,29,14.40
2016,06,27,05,30,14.40
2016,06,27,05,31,14.40
2016,06,27,05,32,14.40
2016,06,27,05,33,14.40
2016,06,27,05,34,14.40
2016,06,27,05,35,14.40
2016,06,27,05,36,14.40
2016,06,27,05,37,14.40
2016,06,27,05,38,14.30
2016,06,27,05,39,14.30
2016,06,27,05,40,14.30
2016,06,27,05,41,14.30
2016,06,27,05,42,14.30
2016,06,27,05,43,14.30
2016,06,27,05,44,14.30
2016,06,27,05,45,14.30
2016,06,27,05,46,14.30
2016,06,27,05,47,14.30
2016,06,27,05,48,14.30
2016,06,27,05,49,14.30
2016,06,27,05,50,14.30
2016,06,27,05,51,14.30
2016,06,27,05,52,14.20
2016,06,27,05,53,14.20
2016,06,27,05,54,14.20
2016,06,27,05,55,14.20
2016,06,27,05,56,14.20
2016,06,27,05,57,14.20
2016,06,27,05,58,14.20
2016,06,27,05,59,14.20
2016,06,27,06,00,14.20
2016,06,27,06,01,14.20
2016,06,27,06,02,14.30
2016,06,27,06,03,14.30
2016,06,27,06,04,14.30
2016,06,27,06,05,14.30
2016,06,27,06,06,14.30
2016,06,27,06,07,14.30
2016,06,27,06,08,14.30
2016,06,27,06,09,14.30
2016,06,27,06,10,14.30
2016,06,27,06,11,14.30
2016,06,27,06,12,14.30
2016,06,27,06,13,14.30
2016,06,27,06,14,14.40
2016,06,27,06,15,14.40
2016,06,27,06,16,14.40
2016,06,27,06,17,14.40
2016,06,27,06,18,14.40
2016,06,27,06,19,14.40
2016,06,27,06,20,14.40
2016,06,27,06,21,14.40
2016,06,27,06,22,14.40
2016,06,27,06,23,14.40
2016,06,27,06,24,14.40
2016,06,27,06,25,14.40
2016,06,27,06,26,14.40
2016,06,27,06,27,14.50
2016,06,27,06,28,14.50
2016,06,27,06,29,14.50
2016,06,27,06,30,14.50
2016,06,27,06,31,14.60
2016,06,27,06,32,14.60
2016,06,27,06,33,14.60
2016,06,27,06,34,14.60
2016,06,27,06,35,14.70
2016,06,27,06,36,14.70
2016,06,27,06,37,14.70
2016,06,27,06,38,14.70
2016,06,27,06,39,14.70
2016,06,27,06,40,14.80
2016,06,27,06,41,14.80
2016,06,27,06,42,14.80
2016,06,27,06,43,14.80
2016,06,27,06,44,14.90
2016,06,27,06,45,14.90
2016,06,27,06,46,14.90
2016,06,27,06,47,15.00
2016,06,27,06,48,15.00
2016,06,27,06,49,15.00
2016,06,27,06,50,15.10
2016,06,27,06,51,15.10
2016,06,27,06,52,15.10
2016,06,27,06,53,15.10
2016,06,27,06,54,15.10
2016,06,27,06,55,15.10
2016,06,27,06,56,15.10
2016,06,27,06,57,15.10
2016,06,27,06,58,15.10
2016,06,27,06,59,15.10
2016,06,27,07,00,15.10
2016,06,27,07,01,15.10
2016,06,27,07,02,15.20
2016,06,27,07,03,15.20
2016,06,27,07,04,15.20
2016,06,27,07,05,15.30
2016,06,27,07,06,15.30
2016,06,27,07,07,15.30
2016,06,27,07,08,15.40
2016,06,27,07,09,15.40
2016,06,27,07,10,15.40
2016,06,27,07,11,15.30
2016,06,27,07,12,15.30
2016,06,27,07,13,15.30
2016,06,27,07,14,15.30
2016,06,27,07,15,15.20
2016,06,27,07,16,15.20
2016,06,27,07,17,15.20
2016,06,27,07,18,15.20
2016,06,27,07,19,15.20
2016,06,27,07,20,15.20
2016,06,27,07,21,15.20
2016,06,27,07,22,15.20
2016,06,27,07,23,15.10
2016,06,27,07,24,15.10
2016,06,27,07,25,15.00
2016,06,27,07,26,15.00
2016,06,27,07,27,14.90
2016,06,27,07,28,14.90
2016,06,27,07,29,14.90
2016,06,27,07,30,14.80
2016,06,27,07,31,14.80
2016,06,27,07,32,14.80
2016,06,27,07,33,14.70
2016,06,27,07,34,14.70
2016,06,27,07,35,14.80
2016,06,27,07,36,14.80
2016,06,27,07,37,14.80
2016,06,27,07,38,14.80
2016,06,27,07,39,14.80
2016,06,27,07,40,14.80
2016,06,27,07,41,14.90
2016,06,27,07,42,14.80
2016,06,27,07,43,14.80
2016,06,27,07,44,14.80
2016,06,27,07,45,14.80
2016,06,27,07,46,14.80
2016,06,27,07,47,14.80
2016,06,27,07,48,14.70
2016,06,27,07,49,14.70
2016,06,27,07,50,14.70
2016,06,27,07,51,14.70
2016,06,27,07,52,14.70
2016,06,27,07,53,14.80
2016,06,27,07,54,14.80
2016,06,27,07,55,14.80
2016,06,27,07,56,14.80
2016,06,27,07,57,14.70
2016,06,27,07,58,14.70
2016,06,27,07,59,14.70
2016,06,27,08,00,14.80
2016,06,27,08,01,14.80
2016,06,27,08,02,14.80
2016,06,27,08,03,14.80
2016,06,27,08,04,14.90
2016,06,27,08,05,14.90
2016,06,27,08,06,15.00
2016,06,27,08,07,15.10
2016,06,27,08,08,15.10
2016,06,27,08,09,15.20
2016,06,27,08,10,15.30
2016,06,27,08,11,15.30
2016,06,27,08,12,15.40
2016,06,27,08,13,15.40
2016,06,27,08,14,15.40
2016,06,27,08,15,15.50
2016,06,27,08,16,15.50
2016,06,27,08,17,15.50
2016,06,27,08,18,15.50
2016,06,27,08,19,15.40
2016,06,27,08,20,15.40
2016,06,27,08,21,15.40
2016,06,27,08,22,15.30
2016,06,27,08,23,15.30
2016,06,27,08,24,15.30
2016,06,27,08,25,15.20
2016,06,27,08,26,15.20
2016,06,27,08,27,15.10
2016,06,27,08,28,15.10
2016,06,27,08,29,15.10
2016,06,27,08,30,15.10
2016,06,27,08,31,15.00
2016,06,27,08,32,15.00
2016,06,27,08,33,15.00
2016,06,27,08,34,14.90
2016,06,27,08,35,14.90
2016,06,27,08,36,14.90
2016,06,27,08,37,14.90
2016,06,27,08,38,14.90
2016,06,27,08,39,14.90
2016,06,27,08,40,14.80
2016,06,27,08,41,14.80
2016,06,27,08,42,14.80
2016,06,27,08,43,14.90
2016,06,27,08,44,14.90
2016,06,27,08,45,14.90
2016,06,27,08,46,14.90
2016,06,27,08,47,14.90
2016,06,27,08,48,14.80
2016,06,27,08,49,14.80
2016,06,27,08,50,14.80
2016,06,27,08,51,14.80
2016,06,27,08,52,14.80
2016,06,27,08,53,14.80
2016,06,27,08,54,14.80
2016,06,27,08,55,14.80
2016,06,27,08,56,14.80
2016,06,27,08,57,14.80
2016,06,27,08,58,14.80
2016,06,27,08,59,14.80
2016,06,27,09,00,14.80
2016,06,27,09,01,14.80
2016,06,27,09,02,14.90
2016,06,27,09,03,14.90
2016,06,27,09,04,14.90
2016,06,27,09,05,14.80
2016,06,27,09,06,14.80
2016,06,27,09,07,14.80
2016,06,27,09,08,14.80
2016,06,27,09,09,14.80
2016,06,27,09,10,14.80
2016,06,27,09,11,14.80
2016,06,27,09,12,14.90
2016,06,27,09,13,14.90
2016,06,27,09,14,14.90
2016,06,27,09,15,14.90
2016,06,27,09,16,14.90
2016,06,27,09,17,15.00
2016,06,27,09,18,15.00
2016,06,27,09,19,15.10
2016,06,27,09,20,15.10
2016,06,27,09,21,15.20
2016,06,27,09,22,15.20
2016,06,27,09,23,15.10
2016,06,27,09,24,15.10
2016,06,27,09,25,15.10
2016,06,27,09,26,15.10
2016,06,27,09,27,15.10
2016,06,27,09,28,15.10
2016,06,27,09,29,15.10
2016,06,27,09,30,15.10
2016,06,27,09,31,15.10
2016,06,27,09,32,15.10
2016,06,27,09,33,15.10
2016,06,27,09,34,15.10
2016,06,27,09,35,15.10
2016,06,27,09,36,15.10
2016,06,27,09,37,15.10
2016,06,27,09,38,15.10
2016,06,27,09,39,15.10
2016,06,27,09,40,15.10
2016,06,27,09,41,15.10
2016,06,27,09,42,15.10
2016,06,27,09,43,15.10
2016,06,27,09,44,15.20
2016,06,27,09,45,15.20
2016,06,27,09,46,15.20
2016,06,27,09,47,15.20
2016,06,27,09,48,15.10
2016,06,27,09,49,15.10
2016,06,27,09,50,15.00
2016,06,27,09,51,15.00
2016,06,27,09,52,14.90
2016,06,27,09,53,14.90
2016,06,27,09,54,14.90
2016,06,27,09,55,15.00
2016,06,27,09,56,15.00
2016,06,27,09,57,15.00
2016,06,27,09,58,15.00
2016,06,27,09,59,15.00
2016,06,27,10,00,15.00
2016,06,27,10,01,15.00
2016,06,27,10,02,15.00
2016,06,27,10,03,15.10
2016,06,27,10,04,15.10
2016,06,27,10,05,15.10
2016,06,27,10,06,15.20
2016,06,27,10,07,15.20
2016,06,27,10,08,15.30
2016,06,27,10,09,15.30
2016,06,27,10,10,15.40
2016,06,27,10,11,15.40
2016,06,27,10,12,15.40
2016,06,27,10,13,15.40
2016,06,27,10,14,15.40
2016,06,27,10,15,15.40
2016,06,27,10,16,15.40
2016,06,27,10,17,15.40
2016,06,27,10,18,15.40
2016,06,27,10,19,15.40
2016,06,27,10,20,15.40
2016,06,27,10,21,15.40
2016,06,27,10,22,15.50
2016,06,27,10,23,15.50
2016,06,27,10,24,15.60
2016,06,27,10,25,15.70
2016,06,27,10,26,15.70
2016,06,27,10,27,15.80
2016,06,27,10,28,15.90
2016,06,27,10,29,16.00
2016,06,27,10,30,16.10
2016,06,27,10,31,16.20
2016,06,27,10,32,16.30
2016,06,27,10,33,16.40
2016,06,27,10,34,16.40
2016,06,27,10,35,16.40
2016,06,27,10,36,16.50
2016,06,27,10,37,16.50
2016,06,27,10,38,16.60
2016,06,27,10,39,16.60
2016,06,27,10,40,16.70
2016,06,27,10,41,16.70
2016,06,27,10,42,16.70
2016,06,27,10,43,16.80
2016,06,27,10,44,16.80
2016,06,27,10,45,16.80
2016,06,27,10,46,16.90
2016,06,27,10,47,16.90
2016,06,27,10,48,16.90
2016,06,27,10,49,17.00
2016,06,27,10,50,17.00
2016,06,27,10,51,17.10
2016,06,27,10,52,17.10
2016,06,27,10,53,17.20
2016,06,27,10,54,17.30
2016,06,27,10,55,17.30
2016,06,27,10,56,17.40
2016,06,27,10,57,17.40
2016,06,27,10,58,17.40
2016,06,27,10,59,17.40
2016,06,27,11,00,17.40
2016,06,27,11,01,17.30
2016,06,27,11,02,17.20
2016,06,27,11,03,17.10
2016,06,27,11,04,17.00
2016,06,27,11,05,16.90
2016,06,27,11,06,16.80
2016,06,27,11,07,16.70
2016,06,27,11,08,16.70
2016,06,27,11,09,16.70
2016,06,27,11,10,16.80
2016,06,27,11,11,16.80
2016,06,27,11,12,16.90
2016,06,27,11,13,17.00
2016,06,27,11,14,17.10
2016,06,27,11,15,17.20
2016,06,27,11,16,17.30
2016,06,27,11,17,17.40
2016,06,27,11,18,17.50
2016,06,27,11,19,17.50
2016,06,27,11,20,17.60
2016,06,27,11,21,17.60
2016,06,27,11,22,17.50
2016,06,27,11,23,17.40
2016,06,27,11,24,17.40
2016,06,27,11,25,17.40
2016,06,27,11,26,17.40
2016,06,27,11,27,17.40
2016,06,27,11,28,17.30
2016,06,27,11,29,17.30
2016,06,27,11,30,17.20
2016,06,27,11,31,17.00
2016,06,27,11,32,16.90
2016,06,27,11,33,16.80
2016,06,27,11,34,16.80
2016,06,27,11,35,16.70
2016,06,27,11,36,16.70
2016,06,27,11,37,16.60
2016,06,27,11,38,16.60
2016,06,27,11,39,16.60
2016,06,27,11,40,16.70
2016,06,27,11,41,16.70
2016,06,27,11,42,16.70
2016,06,27,11,43,16.80
2016,06,27,11,44,16.80
2016,06,27,11,45,16.80
2016,06,27,11,46,16.90
2016,06,27,11,47,17.00
2016,06,27,11,48,17.10
2016,06,27,11,49,17.10
2016,06,27,11,50,17.20
2016,06,27,11,51,17.20
2016,06,27,11,52,17.30
2016,06,27,11,53,17.30
2016,06,27,11,54,17.30
2016,06,27,11,55,17.30
2016,06,27,11,56,17.30
2016,06,27,11,57,17.40
2016,06,27,11,58,17.40
2016,06,27,11,59,17.50
2016,06,27,12,00,17.60
2016,06,27,12,01,17.60
2016,06,27,12,02,17.70
2016,06,27,12,03,17.70
2016,06,27,12,04,17.80
2016,06,27,12,05,17.90
2016,06,27,12,06,17.90
2016,06,27,12,07,18.00
2016,06,27,12,08,18.10
2016,06,27,12,09,18.10
2016,06,27,12,10,18.20
2016,06,27,12,11,18.20
2016,06,27,12,12,18.30
2016,06,27,12,13,18.30
2016,06,27,12,14,18.40
2016,06,27,12,15,18.40
2016,06,27,12,16,18.50
2016,06,27,12,17,18.50
2016,06,27,12,18,18.50
2016,06,27,12,19,18.60
2016,06,27,12,20,18.60
2016,06,27,12,21,18.70
2016,06,27,12,22,18.70
2016,06,27,12,23,18.80
2016,06,27,12,24,18.80
2016,06,27,12,25,18.90
2016,06,27,12,26,19.00
2016,06,27,12,27,19.00
2016,06,27,12,28,19.10
2016,06,27,12,29,19.10
2016,06,27,12,30,19.10
2016,06,27,12,31,19.20
2016,06,27,12,32,19.20
2016,06,27,12,33,19.20
2016,06,27,12,34,19.20
2016,06,27,12,35,19.30
2016,06,27,12,36,19.30
2016,06,27,12,37,19.40
2016,06,27,12,38,19.40
2016,06,27,12,39,19.50
2016,06,27,12,40,19.50
2016,06,27,12,41,19.60
2016,06,27,12,42,19.60
2016,06,27,12,43,19.70
2016,06,27,12,44,19.70
2016,06,27,12,45,19.70
2016,06,27,12,46,19.80
2016,06,27,12,47,19.80
2016,06,27,12,48,19.80
2016,06,27,12,49,19.80
2016,06,27,12,50,19.70
2016,06,27,12,51,19.70
2016,06,27,12,52,19.70
2016,06,27,12,53,19.70
2016,06,27,12,54,19.60
2016,06,27,12,55,19.60
2016,06,27,12,56,19.60
2016,06,27,12,57,19.70
2016,06,27,12,58,19.70
2016,06,27,12,59,19.70
2016,06,27,13,00,19.70
2016,06,27,13,01,19.70
2016,06,27,13,02,19.80
2016,06,27,13,03,19.80
2016,06,27,13,04,19.90
2016,06,27,13,05,20.00
2016,06,27,13,06,20.10
2016,06,27,13,07,20.20
2016,06,27,13,08,20.20
2016,06,27,13,09,20.20
2016,06,27,13,10,20.20
2016,06,27,13,11,20.20
2016,06,27,13,12,20.20
2016,06,27,13,13,20.20
2016,06,27,13,14,20.20
2016,06,27,13,15,20.30
2016,06,27,13,16,20.40
2016,06,27,13,17,20.40
2016,06,27,13,18,20.40
2016,06,27,13,19,20.40
2016,06,27,13,20,20.40
2016,06,27,13,21,20.40
2016,06,27,13,22,20.40
2016,06,27,13,23,20.40
2016,06,27,13,24,20.50
2016,06,27,13,25,20.60
2016,06,27,13,26,20.60
2016,06,27,13,27,20.70
2016,06,27,13,28,20.70
2016,06,27,13,29,20.60
2016,06,27,13,30,20.60
2016,06,27,13,31,20.60
2016,06,27,13,32,20.60
2016,06,27,13,33,20.70
2016,06,27,13,34,20.70
2016,06,27,13,35,20.80
2016,06,27,13,36,20.90
2016,06,27,13,37,20.90
2016,06,27,13,38,21.00
2016,06,27,13,39,21.10
2016,06,27,13,40,21.10
2016,06,27,13,41,21.30
2016,06,27,13,42,21.40
2016,06,27,13,43,21.50
2016,06,27,13,44,21.60
2016,06,27,13,45,21.70
2016,06,27,13,46,21.80
2016,06,27,13,47,21.90
2016,06,27,13,48,22.10
2016,06,27,13,49,22.20
2016,06,27,13,50,22.30
2016,06,27,13,51,22.30
2016,06,27,13,52,22.40
2016,06,27,13,53,22.50
2016,06,27,13,54,22.50
2016,06,27,13,55,22.50
2016,06,27,13,56,22.50
2016,06,27,13,57,22.50
2016,06,27,13,58,22.50
2016,06,27,13,59,22.50
2016,06,27,14,00,22.40
2016,06,27,14,01,22.40
2016,06,27,14,02,22.40
2016,06,27,14,03,22.40
2016,06,27,14,04,22.40
2016,06,27,14,05,22.40
2016,06,27,14,06,22.40
2016,06,27,14,07,22.40
2016,06,27,14,08,22.40
2016,06,27,14,09,22.40
2016,06,27,14,10,22.50
2016,06,27,14,11,22.50
2016,06,27,14,12,22.50
2016,06,27,14,13,22.40
2016,06,27,14,14,22.40
2016,06,27,14,15,22.40
2016,06,27,14,16,22.30
2016,06,27,14,17,22.30
2016,06,27,14,18,22.30
2016,06,27,14,19,22.30
2016,06,27,14,20,22.30
2016,06,27,14,21,22.30
2016,06,27,14,22,22.30
2016,06,27,14,23,22.40
2016,06,27,14,24,22.40
2016,06,27,14,25,22.40
2016,06,27,14,26,22.50
2016,06,27,14,27,22.60
2016,06,27,14,28,22.70
2016,06,27,14,29,22.70
2016,06,27,14,30,22.70
2016,06,27,14,31,22.70
2016,06,27,14,32,22.80
2016,06,27,14,33,22.80
2016,06,27,14,34,22.80
2016,06,27,14,35,22.90
2016,06,27,14,36,22.90
2016,06,27,14,37,23.00
2016,06,27,14,38,23.00
2016,06,27,14,39,23.10
2016,06,27,14,40,23.10
2016,06,27,14,41,23.10
2016,06,27,14,42,23.10
2016,06,27,14,43,23.10
2016,06,27,14,44,23.10
2016,06,27,14,45,23.10
2016,06,27,14,46,23.10
2016,06,27,14,47,23.10
2016,06,27,14,48,23.20
2016,06,27,14,49,23.20
2016,06,27,14,50,23.20
2016,06,27,14,51,23.20
2016,06,27,14,52,23.20
2016,06,27,14,53,23.20
2016,06,27,14,54,23.10
2016,06,27,14,55,23.10
2016,06,27,14,56,23.10
2016,06,27,14,57,23.10
2016,06,27,14,58,23.20
2016,06,27,14,59,23.20
2016,06,27,15,00,23.20
2016,06,27,15,01,23.20
2016,06,27,15,02,23.20
2016,06,27,15,03,23.20
2016,06,27,15,04,23.10
2016,06,27,15,05,23.20
2016,06,27,15,06,23.20
2016,06,27,15,07,23.20
2016,06,27,15,08,23.20
2016,06,27,15,09,23.20
2016,06,27,15,10,23.20
2016,06,27,15,11,23.20
2016,06,27,15,12,23.30
2016,06,27,15,13,23.30
2016,06,27,15,14,23.40
2016,06,27,15,15,23.40
2016,06,27,15,16,23.50
2016,06,27,15,17,23.60
2016,06,27,15,18,23.70
2016,06,27,15,19,23.70
2016,06,27,15,20,23.70
2016,06,27,15,21,23.70
2016,06,27,15,22,23.70
2016,06,27,15,23,23.70
2016,06,27,15,24,23.70
2016,06,27,15,25,23.70
2016,06,27,15,26,23.70
2016,06,27,15,27,23.70
2016,06,27,15,28,23.70
2016,06,27,15,29,23.70
2016,06,27,15,30,23.60
2016,06,27,15,31,23.60
2016,06,27,15,32,23.50
2016,06,27,15,33,23.40
2016,06,27,15,34,23.40
2016,06,27,15,35,23.40
2016,06,27,15,36,23.30
2016,06,27,15,37,23.30
2016,06,27,15,38,23.30
2016,06,27,15,39,23.20
2016,06,27,15,40,23.20
2016,06,27,15,41,23.10
2016,06,27,15,42,23.10
2016,06,27,15,43,23.10
2016,06,27,15,44,23.10
2016,06,27,15,45,23.10
2016,06,27,15,46,23.10
2016,06,27,15,47,23.00
2016,06,27,15,48,23.00
2016,06,27,15,49,23.00
2016,06,27,15,50,22.90
2016,06,27,15,51,22.90
2016,06,27,15,52,22.90
2016,06,27,15,53,22.90
2016,06,27,15,54,22.90
2016,06,27,15,55,22.90
2016,06,27,15,56,22.90
2016,06,27,15,57,22.90
2016,06,27,15,58,22.90
2016,06,27,15,59,22.90
2016,06,27,16,00,22.90
2016,06,27,16,01,22.90
2016,06,27,16,02,22.90
2016,06,27,16,03,23.00
2016,06,27,16,04,23.00
2016,06,27,16,05,23.10
2016,06,27,16,06,23.20
2016,06,27,16,07,23.20
2016,06,27,16,08,23.30
2016,06,27,16,09,23.40
2016,06,27,16,10,23.40
2016,06,27,16,11,23.50
2016,06,27,16,12,23.60
2016,06,27,16,13,23.70
2016,06,27,16,14,23.80
2016,06,27,16,15,23.90
2016,06,27,16,16,24.00
2016,06,27,16,17,24.10
2016,06,27,16,18,24.10
2016,06,27,16,19,24.20
2016,06,27,16,20,24.20
2016,06,27,16,21,24.30
2016,06,27,16,22,24.30
2016,06,27,16,23,24.30
2016,06,27,16,24,24.30
2016,06,27,16,25,24.30
2016,06,27,16,26,24.30
2016,06,27,16,27,24.30
2016,06,27,16,28,24.30
2016,06,27,16,29,24.30
2016,06,27,16,30,24.20
2016,06,27,16,31,24.20
2016,06,27,16,32,24.10
2016,06,27,16,33,24.10
2016,06,27,16,34,24.00
2016,06,27,16,35,24.00
2016,06,27,16,36,24.00
2016,06,27,16,37,24.00
2016,06,27,16,38,24.10
2016,06,27,16,39,24.10
2016,06,27,16,40,24.20
2016,06,27,16,41,24.20
2016,06,27,16,42,24.30
2016,06,27,16,43,24.30
2016,06,27,16,44,24.40
2016,06,27,16,45,24.40
2016,06,27,16,46,24.50
2016,06,27,16,47,24.60
2016,06,27,16,48,24.70
2016,06,27,16,49,24.70
2016,06,27,16,50,24.60
2016,06,27,16,51,24.60
2016,06,27,16,52,24.70
2016,06,27,16,53,24.70
2016,06,27,16,54,24.70
2016,06,27,16,55,24.70
2016,06,27,16,56,24.70
2016,06,27,16,57,24.70
2016,06,27,16,58,24.60
2016,06,27,16,59,24.60
2016,06,27,17,00,24.60
2016,06,27,17,01,24.60
2016,06,27,17,02,24.60
2016,06,27,17,03,24.60
2016,06,27,17,04,24.70
2016,06,27,17,05,24.70
2016,06,27,17,06,24.60
2016,06,27,17,07,24.50
2016,06,27,17,08,24.40
2016,06,27,17,09,24.40
2016,06,27,17,10,24.40
2016,06,27,17,11,24.30
2016,06,27,17,12,24.30
2016,06,27,17,13,24.30
2016,06,27,17,14,24.40
2016,06,27,17,15,24.40
2016,06,27,17,16,24.40
2016,06,27,17,17,24.40
2016,06,27,17,18,24.30
2016,06,27,17,19,24.30